User: anonymous   Login
Location: Kott?ru
(16.6209°N, 80.6208°E)
Time: 13:20:53
(UTC+00:00)
Language:

OBJECT Y - Orbit

View from above orbital plane
View from above orbital plane
View from above satellite
View from above satellite

Ground track
Ground track

The orbit data is extracted from the following two-line orbital elements,

1 43898U 18111Y   24054.11612403  .00019495  00000-0  46911-3 0  9999
2 43898  97.0981 287.0270 0017260  47.4981 312.7721 15.41167119287470
Epoch (UTC): 23 February 2024 02:47:13
Eccentricity: 0.0017260
inclination: 97.0981°
perigee height: 431 km
apogee height: 454 km
right ascension of ascending node: 287.0270°
argument of perigee: 47.4981°
revolutions per day: 15.41167119
mean anomaly at epoch: 312.7721°
orbit number at epoch: 28747

The dashed part of the orbit path shows where the satellite is in the earth's shadow,  

DLR